Regional Weather Roundup
Issued by NWS Kansas City/Pleasant Hill, MO

Home | Current Version | Previous Version | Graphics & Text | Print | Product List | Glossary Off
Versions: 1 2 3 4 5 6 7 8 9 10 11 12 13 14 15 16 17 18 19 20 21 22 23 24 25 26 27 28

000
ASUS43 KEAX 182210
RWREAX

WEATHER ROUNDUP FOR EASTERN KANSAS AND NORTHWEST MISSOURI
NATIONAL WEATHER SERVICE KANSAS CITY/PLEASANT HILL MO
400 PM CST SAT NOV 18 2017

KSZ040-057-103>105-MOZ028-029-037-043-182300-
...KANSAS CITY METROPOLITAN AREA...

CITY           SKY/WX    TMP DP  RH WIND       PRES   REMARKS
K.C. INTL      PTCLDY    50  32  50 NW20G26   30.00R
K.C. DOWNTOWN  CLEAR     52  31  44 NW22G31   30.00R
LEES SUMMIT    PTCLDY    50  31  48 NW25G31   30.00R
OLATHE - IXD   CLEAR     50  32  50 NW20G36   30.03R
OLATHE - OJC   PTCLDY    50  29  44 N18G30    30.02R
LAWRENCE       MOSUNNY   52  31  44 NW23G32   30.04R

$$

MOZ001>008-011>017-020>025-030>033-038>040-044>046-053-054-182300-
...NORTHERN AND CENTRAL MISSOURI...

CITY           SKY/WX    TMP DP  RH WIND       PRES   REMARKS
ST. JOSEPH     CLEAR     50  31  48 N23G33    30.01R
MOSBY          CLEAR     50  30  46 NW22G32   29.99R
WARRENSBURG    PTCLDY    48  30  49 NW15G25   29.98R
WHITEMAN AFB   PTCLDY    48  32  54 NW16G23   29.93R
CLINTON        PTCLDY    46  32  57 MISG      29.99R
SEDALIA        CLOUDY    47  35  63 NW15G30   29.96R
WARSAW         NOT AVBL
CHILLICOTHE      N/A     49  31  49 NW14G26   29.96R
KIRKSVILLE     PTCLDY    45  32  60 NW10      29.88R

$$

MOZ041-047>049-056>058-063>065-088>090-097-182300-
...EASTERN AND SOUTHERN MISSOURI...

CITY           SKY/WX    TMP DP  RH WIND       PRES   REMARKS
ST. LOUIS INTL CLOUDY    43  41  93 NW17G24   29.77R
SPIRIT OF STL  CLOUDY    44  41  89 NW16G22   29.79R
COLUMBIA       CLOUDY    44  36  73 NW17G24   29.89R
JEFFERSON CITY CLOUDY    46  36  68 NW15G22   29.90R
ROLLA          CLOUDY    42  39  89 NW15G29   29.86R WCI  34
OSAGE BEACH    MOCLDY    45  36  70 W12G22    29.94R
SPRINGFIELD    CLOUDY    45  38  76 NW12G25   29.97R
BRANSON        CLOUDY    45  37  76 NW20G33   29.97R
JOPLIN         SUNNY     49  33  54 NW14G26   30.05R
WEST PLAINS    LGT RAIN  46  37  71 NW18G29   29.90R

$$

IAZ060-094-KSZ022-034>040-054-083-096-NEZ052-066-093-182300-
...KANSAS...SOUTHEAST NEBRASKA AND IOWA...

CITY           SKY/WX    TMP DP  RH WIND       PRES   REMARKS
TOPEKA         PTSUNNY   54  31  41 NW18G28   30.05R
MANHATTAN      SUNNY     53  26  35 NW12G26   30.10R
EMPORIA        SUNNY     53  28  38 NW21G29   30.08R
CHANUTE        MOSUNNY   54  33  45 N23G32    30.06R
WICHITA        MOSUNNY   55  24  30 N20G32    30.13R
OMAHA          CLEAR     43  26  51 NW26G32   30.05R WCI  33
LINCOLN        CLEAR     49  25  39 NW21G30   30.09R
FALLS CITY     PTCLDY    50  30  46 NW22G37   30.03R
LAMONI         PTCLDY    45  32  60 NW24G32   29.94R
DES MOINES     MOCLDY    43  28  55 NW23G38   29.94R WCI  34

$$





USA.gov is the U.S. government's official web portal to all federal, state and local government web resources and services.